Location: Kershaw
(34.5481°N, 80.5823°W)
Time: 22:00:01
(UTC+00:00)

Tiros 1 despin weight - Pass Details

Date: 10 October 2022
Orbit: 590 x 637 km, 48.2° (Epoch: 05 December)

Event Time Altitude Azimuth Distance (km) Brightness Sun altitude
Rises 00:55:55 0° 307° (NW) 2,879 ? -25.6°
Reaches altitude 10° 00:58:13 10° 307° (NW) 1,980 ? -26.0°
Enters shadow 01:02:02 62° 301° (WNW) 701 ? -26.8°
